ガン彗星

65P/Gunn (2017)

English version
Home page
Updated on February 7, 2017

---------------------------------------------------------------------

・ プロフィール

・ 写真集

・ 軌道要素

Epoch 2017 Oct. 14.0 TT = JDT 2458040.5
T 2017 Oct. 16.78566 TT                                 MPCW
q   2.9100262            (2000.0)            P               Q
n   0.12896200     Peri.  213.54474     +0.09066865     +0.98585529
a   3.8799686      Node    62.01739     -0.87502759     +0.14644458
e   0.2499872      Incl.    9.18464     -0.47550595     -0.08150662
P   7.64
From 3739 observations 1997 June 11-2016 May 13, mean residual 0".8.
     Nongravitational parameters Y1 = +0.22, Y2 = +0.0179.

・ 星図

・ 光度変化

        m1 = 6.8 + 5 logΔ + 12.0 log r

---------------------------------------------------------------------

軌道要素はM.P.E.C. 2016-K18に掲載されたものです。
星図はステラナビゲータ Ver.8 (アストロアーツ) で作成したものです。
光度グラフはComet for Windowsで作成したものです。

---------------------------------------------------------------------

Copyright(C) Seiichi Yoshida (comet@aerith.net). All rights reserved.